ATLAS 5 CENTAUR DEB, 43990

Orbit data source: Space-Track

ATLAS 5 CENTAUR DEB, 43990 is space debris in HEO originally from a launch on Wed, 17 Sep 2014 UTC launched from the Air Force Eastern Test Range (AFETR). Debris objects in space refer to the collection of defunct objects orbiting the Earth. Examples of debris include non-operational satellites, rocket bodies, and fragments generated from explosions, collisions, or faulty payload assembly.

Loading next visibility...
Identifier
43990, 2014-055AV
Orbit
HEO
Country
Flag of USUS
Related business
Flag of USUnited Launch Alliance/Lockheed Martin (US)
Manufacturer
Unknown
Mission
Spacecraft
Bus & Motor
Unknown
Mass
Unknown
Launch date (UTC)
2014-09-17 (12 years ago)
Launch vehicle
Unknown
Launch site
Air Force Eastern Test Range (AFETR)
Object type
Payload
Rocket body
Debris
Shape & HBR
Unknown shape, 1.1 m
Radar Cross Section
Medium (>0.1 m² and <1 m²)

Expand to show TLE details & history
Last TLE update: 2 days ago

TLE from 2 days ago
0 ATLAS 5 CENTAUR DEB
1 43990U 14055AV  26170.97213786 -.00000053  00000-0  00000-0 0  9998
2 43990  20.4077 134.1165 4734458 183.3060 171.8964  1.88647594 53178
Epoch: 2026-06-19T23:19Z
TLE epoch observation values (Epoch: 2026-06-19T23:19:52.711Z)
Latitude
-0°
Longitude
-124.08431°
Altitude
34,330.02 km
Speed
2.275 km/s
True Right ascension
08h 56m 18s
True Declination
0° 00' 00"
Sunlit
Object was in daylight at epoch
Visualization orbit readout
Latitude
Unknown
Longitude
Unknown
Altitude
Unknown
Speed
Unknown
Apparent Right ascension
Unknown
Apparent Declination
Unknown
Sunlit
N/A
Visualization observer readout
Local Sidereal Time
21:45:59
Azimuth
Unknown
Elevation
Unknown
Doppler factor
Unknown
Orbital elements
Apogee altitude
34,391.044 km
Perigee altitude
8,191.237 km
Semi-major axis
27,669.278 km
Eccentricity
0.47345
Inclination
20.4077°
RAAN
134.1165°
Arg. of periapsis
183.306°
True anomaly
176.709°
Mean anomaly
171.8964°
Eccentric anomaly
174.49752°
Mean motion
0.47157 °/min
Orbital period
763.41 mins
BSTAR
0
Loading maneuver chart data...
Computing Atmospheric mass density...

Documentation

Showing up to 5 results
|